Location: Dover
(51.1500°N, 1.2333°E)
Time: 14:52:57
(UTC+00:00)

Daily predictions for brighter satellites

Satellite Brightness Start Highest point End
(mag) Time Altitude Azimuth Time Altitude Azimuth Time Altitude Azimuth
CZ-2C R/B 3.8 20:47:58 10° N 20:53:14 50° WNW 20:58:20 10° SW
Cosmos-2242 3.1 20:49:18 10° N 20:53:39 74° E 20:57:59 10° SSE
Cosmos 1818 3.6 20:49:31 10° SSW 20:54:51 59° SE 21:00:13 10° NE
Cosmos 2221 4.1 20:54:50 10° NNE 20:58:21 23° ENE 21:01:51 10° ESE
SL-16 R/B 2.9 20:53:08 10° SW 20:58:44 60° NW 21:04:23 10° NNE
ERS-1 Rocket 3.2 20:57:36 10° SSE 21:02:34 63° ENE 21:07:34 10° N
GEOS 3 Rocket 3.9 20:58:15 10° NE 21:03:31 50° SE 21:08:44 10° SSW
USA 215 3.7 21:01:05 10° ENE 21:07:04 37° SE 21:13:02 10° SSW
Cosmos 2278 Rocket 3.1 21:01:48 10° NNW 21:07:10 40° NE 21:12:29 10° ESE
ATLAS 5 CENTAUR R/B 1.5 21:07:18 10° SSW 21:11:25 62° SE 21:16:07 10° NE
Cosmos 1844 Rocket 3.2 21:06:39 10° NW 21:12:07 57° WSW 21:17:33 10° S
USA 245 3.8 21:09:29 10° S 21:12:48 56° W 21:17:02 10° NNW
Meteor 1-11 4.5 21:07:23 10° S 21:12:49 54° E 21:18:23 10° NNE
Cosmos 1400 Rocket 3.1 21:09:00 10° NNW 21:13:00 68° W 21:16:54 10° S
Gblst 52 Del rocket 4.3 21:07:30 10° WNW 21:13:07 77° SSW 21:19:20 10° ESE
Cosmos 1758 Rocket 3.8 21:11:20 10° SSW 21:15:50 79° W 21:20:21 10° N
SPOT 5 3.0 21:14:15 10° SSE 21:19:16 74° ENE 21:24:03 10° NNW
Lacrosse 5 rocket 2.9 21:15:19 10° W 21:19:19 38° N 21:23:06 10° ENE
BREEZE-M DEB (TANK) 4.3 21:15:55 10° W 21:20:01 78° S 21:35:52 10° ESE
Spot 2 Rocket 4.2 21:18:13 10° S 21:23:12 53° W 21:28:13 10° NNW
USA 81 4.2 21:20:38 10° S 21:25:49 61° E 21:31:03 10° NNE
BREEZE M DEB (TANK) 3.3 21:24:14 10° W 21:26:24 21° SSW 21:27:38 14° SSE
Cosmos 2181 Rocket 4.1 21:21:24 10° N 21:27:49 82° E 21:34:05 10° SSE
TSX-5 4.3 21:30:50 10° NNW 21:34:05 44° NE 21:37:35 12° SE
Cosmos 2074 Rocket 4.5 21:29:15 10° SSE 21:35:03 44° E 21:40:54 10° NNE
SPOT 1/Viking Rocket 4.2 21:32:48 10° S 21:37:49 52° W 21:42:53 10° NNW
Cosmos 1953 Rocket 3.6 21:34:37 10° SSW 21:38:56 81° W 21:43:18 10° N
USA 267 3.3 21:34:49 10° ESE 21:41:25 89° NNE 21:48:01 10° WNW
CZ-4C R/B 4.4 21:36:48 10° NW 21:42:20 30° NNE 21:48:46 10° ENE
SAR-Lupe-2 3.9 21:39:21 10° N 21:42:57 66° WNW 21:46:30 10° SSW
Cosmos 2084 3.6 21:40:02 10° NW 21:44:29 68° SW 21:48:05 15° SSE
Cosmos 1842 Rocket 3.6 21:41:05 10° N 21:45:27 69° ENE 21:49:02 15° SSE
Cosmos 2322 Rocket 3.9 21:41:04 10° WSW 21:46:14 36° NW 21:51:27 10° NNE
MTI 4.3 21:48:24 10° NNE 21:51:20 37° E 21:53:10 18° SSE
ATLAS CENTAUR R/B 1.5 21:52:20 10° NW 21:55:56 49° SW 21:58:26 18° SSE
Cosmos 2369 Rocket 4.5 21:55:07 10° N 21:58:52 18° NNE 22:02:37 10° ENE
Cosmos 1825 4.1 21:58:08 13° ESE 21:59:53 17° E 22:02:21 10° NE
Cosmos 1980 4.4 21:56:55 14° SSE 22:01:06 35° ESE 22:06:11 10° NE
ALOS 2 4.4 21:58:17 10° ESE 22:01:36 21° ENE 22:04:55 10° NNE
COSMOS 2428 2.7 22:00:11 10° SSW 22:05:50 79° ESE 22:11:33 10° NNE
Cosmos 1869 3.3 22:02:26 10° N 22:06:26 88° WSW 22:09:22 18° S
Cosmos 2322 4.1 22:04:06 10° SW 22:09:48 66° WNW 22:15:31 10° NNE
NOSS 3-4 (A) 3.9 22:06:05 10° NW 22:12:57 82° NE 22:19:46 13° SE
NOSS 3-4 (C) 3.9 22:06:11 10° NW 22:13:03 81° NE 22:19:54 13° SE
NOSS 0 Rocket 4.1 22:07:31 10° S 22:13:20 51° ESE 22:19:17 10° NE
Terra 2.5 22:10:34 13° S 22:14:41 50° W 22:19:20 10° NNW
Cosmos 2237 Rocket 2.6 22:14:58 15° S 22:19:17 44° ESE 22:24:42 10° NE
Genesis I 4.4 22:18:36 21° SE 22:19:43 24° ESE 22:22:53 10° ENE
Cosmos 2219 Rocket 2.4 22:16:05 10° SW 22:21:41 76° WNW 22:27:19 10° NNE
Cosmos 2344 4.1 22:16:02 14° S 22:21:48 37° ESE 22:28:54 10° NE
Atlas Centaur 2 4.4 22:20:27 10° SSW 22:21:21 11° S 22:21:21 11° S
Cosmos 1538 Rocket 4.3 22:17:35 10° SSW 22:22:57 71° WNW 22:28:17 10° NNE
Cosmos 2360 Rocket 3.9 22:18:57 10° WSW 22:24:06 35° NW 22:29:19 10° NNE
NOSS 3-3 (A) 4.0 22:18:17 10° SW 22:24:14 85° SE 22:31:03 10° NE
NOSS 3-3 (C) 4.0 22:18:23 10° SW 22:24:21 85° SE 22:31:10 10° NE
Cosmos 1315 Rocket 4.3 22:22:52 10° NNW 22:26:30 31° W 22:29:55 11° SSW
Thor Agena Rocket 3.9 22:25:03 10° NNE 22:30:02 49° E 22:33:18 20° SSE
Cosmos 2333 Rocket 2.7 22:26:12 10° SW 22:31:52 63° NW 22:37:35 10° NNE
Cosmos 2184 Rocket 4.1 22:27:10 11° SSW 22:33:07 80° W 22:39:29 10° N
Cosmos 2221 3.3 22:31:57 10° NNW 22:36:09 45° W 22:39:20 16° SSW
BREEZE-M DEB (TANK) 1.7 22:35:45 10° W 22:40:10 57° SSW 22:41:22 27° SE
Iridium 2 3.7 22:36:32 10° N 22:40:23 75° E 22:42:26 26° SSE
Cosmos 1371 Rocket 4.0 22:35:24 10° NNW 22:40:42 84° ENE 22:44:15 21° SSE
ATLAS 2AS CENTAUR R/B 2.9 22:33:14 10° NW 22:40:56 82° SW 22:46:24 18° SE
EO 1 Del DPAF 3.4 22:39:28 10° NNE 22:43:10 52° E 22:45:00 26° SSE
Cosmos 1892 2.8 22:41:59 20° SSW 22:44:32 73° WNW 22:48:22 10° N
Aureole 2 Rocket 2.7 22:45:07 10° NNW 22:47:50 44° ENE 22:48:59 27° ESE
Okean 3 Rocket 4.3 22:47:02 23° SE 22:49:17 39° E 22:53:24 10° NNE
Cosmos 1606 3.4 22:46:34 10° N 22:50:19 43° ENE 22:52:19 23° SE
USA 215 3.3 22:43:59 10° ENE 22:50:35 90° NNW 22:57:10 10° WSW
Cosmos 2278 Rocket 2.8 22:45:57 10° NW 22:51:21 45° WSW 22:54:59 20° S
Cosmos 2112 Rocket 4.1 22:48:24 19° S 22:52:18 69° ESE 22:57:39 10° NNE
Cosmos 2297 4.0 22:47:11 10° NNW 22:52:56 67° ENE 22:57:11 18° SE
ATLAS 5 CENTAUR R/B 3.6 22:52:24 10° W 22:56:24 33° NNW 23:00:57 10° NE
Cosmos 158 Rocket 3.8 22:52:56 19° SSW 22:56:28 77° ESE 23:01:24 10° NNE
Cosmos 1420 Rocket 4.4 22:51:38 10° NNW 22:56:51 59° ENE 23:00:36 19° SE
Lacrosse 5 rocket 2.6 22:55:13 10° WNW 22:59:08 40° NNE 23:02:49 10° E
Cosmos 1943 Rocket 3.2 22:54:03 10° NNW 22:59:28 42° NE 23:04:40 11° ESE
Spot 4 4.0 22:59:07 23° S 23:02:02 66° WSW 23:06:48 10° NNW
SL-16 R/B 2.9 23:00:47 23° SSE 23:03:40 38° ESE 23:08:53 10° NE
Cosmos 2058 3.7 23:01:10 15° SSW 23:04:21 48° WNW 23:08:23 10° N
Cosmos 2056 Rocket 3.6 22:59:13 10° NNW 23:04:38 75° WSW 23:07:58 24° SSE
Cosmos 1408 2.7 23:03:24 24° SSW 23:05:22 66° WNW 23:08:56 10° N
Nadezhda 3 Rocket 4.5 23:03:06 10° NNW 23:09:18 55° W 23:13:54 18° SSW
Cosmos 2154 Rocket 4.3 23:07:49 15° SSW 23:13:03 63° WNW 23:19:15 10° N
Cosmos 2341 Rocket 4.0 23:11:46 21° S 23:16:05 83° E 23:22:19 10° N
Cosmos 1076 Rocket 4.5 23:12:54 15° SW 23:16:11 43° WNW 23:20:17 10° N
Cosmos 332 Rocket 4.2 23:13:31 10° NNW 23:18:16 56° ENE 23:21:28 20° SE
Cosmos 1680 Rocket 3.8 23:15:57 13° SW 23:20:43 67° WNW 23:26:03 10° NNE
Meteor 2-3 Rocket 4.2 23:21:02 23° SSE 23:24:13 48° E 23:29:42 10° NNE
USA 267 3.9 23:21:24 22° S 23:24:54 37° SW 23:30:56 10° WNW
Cosmos 2151 3.1 23:23:52 25° SSW 23:26:18 72° W 23:30:35 10° N
IRIDIUM 104 4.4 23:23:26 26° S 23:26:27 72° E 23:31:40 10° N
Helios 1A 3.3 23:24:53 25° SE 23:27:07 60° ENE 23:31:15 10° N
Cosmos 405 4.2 23:24:10 10° N 23:27:26 33° ENE 23:29:08 21° ESE
Meteor 1-26 Rocket 4.5 23:25:28 10° N 23:31:31 74° ENE 23:35:20 23° SSE
Cosmos 1452 Rocket 3.6 23:26:24 10° NNW 23:31:43 75° ENE 23:35:06 22° SSE
CZ-4C R/B 3.5 23:25:35 10° NW 23:32:16 57° NE 23:40:07 10° ESE
COSMOS 2455 3.0 23:27:23 10° NW 23:33:28 76° NE 23:38:24 16° SE
SL-8 Rocket 3.9 23:30:59 23° S 23:35:01 86° E 23:41:13 10° N
Cosmos 1825 2.9 23:32:56 22° SW 23:35:03 47° WNW 23:38:44 10° N
IRIDIUM 114 4.3 23:32:35 26° S 23:35:36 84° E 23:40:52 10° N
Cosmos 1340 2.9 23:34:23 34° SSE 23:35:47 57° E 23:39:29 10° NNE
Cosmos 1933 3.3 23:32:24 10° NNW 23:36:27 80° W 23:38:13 32° S
ALOS 2 2.9 23:35:27 28° SSW 23:37:35 56° W 23:41:56 10° NNW
Cosmos 1408 Rocket 3.7 23:35:56 29° SSE 23:37:59 61° E 23:42:21 10° NNE
Cosmos 1151 Rocket 3.0 23:33:39 10° NNW 23:37:59 73° W 23:40:03 30° S
Meteor 2-12 Rocket 4.4 23:37:27 24° S 23:41:19 80° E 23:47:29 10° NNE
APEX 2.2 23:41:09 10° NNW 23:43:54 86° SW 23:44:22 57° SSE
Cosmos 1727 Rocket 4.0 23:37:43 10° N 23:43:59 78° E 23:48:04 23° SSE
Cosmos 2369 Rocket 2.6 23:38:34 10° NNW 23:44:08 59° NE 23:48:50 14° SE
IRIDIUM 103 4.3 23:41:42 26° S 23:44:45 83° W 23:50:01 10° N
Cosmos 44 3.0 23:43:38 27° SSW 23:45:52 68° SE 23:50:18 10° NE
GP-B 3.3 23:42:06 10° N 23:46:30 63° W 23:48:50 27° SSW
Cosmos 1500 Rocket 4.4 23:44:49 24° SE 23:46:51 39° E 23:50:56 10° NNE
Cosmos 371 Rocket 3.4 23:43:08 10° NNW 23:47:58 65° WSW 23:50:25 28° S
SL-4 R/B 1.3 23:48:59 41° WNW 23:48:59 41° WNW 23:50:38 10° NNW
Helios 1B rocket 3.8 23:50:06 10° NE 23:53:42 28° E 23:55:23 21° SE
CREW DRAGON DEMO-1 DEB 2.7 23:54:49 43° SW 23:55:33 61° SSE 23:58:35 10° E
